Location: Lasqueti Island Observatory
(49.4855°N, 124.2726°W)
Time: 09:20:38
(UTC-07:00)

Daily predictions for brighter satellites

Satellite Brightness Start Highest point End
(mag) Time Altitude Azimuth Time Altitude Azimuth Time Altitude Azimuth
Meteor 1-28 Rocket 4.4 20:02:45 10° N 20:06:28 48° WNW 20:10:07 10° SSW
Resurs 1-3 3.8 20:05:03 10° SE 20:09:18 51° ENE 20:13:34 10° N
Cosmos 2058 Rocket 3.9 20:08:52 10° SSW 20:13:18 59° WNW 20:17:48 10° N
COSMO-SKYMED 1 4.1 20:09:26 10° N 20:13:34 43° WNW 20:17:40 10° SW
Tiangong 1 3.1 20:15:22 10° WSW 20:17:28 18° SSW 20:19:32 10° SSE
In-Cosmos 22 4.3 20:13:21 10° N 20:18:36 51° ENE 20:23:44 10° SSE
Cosmos 1378 3.2 20:16:29 10° N 20:20:17 88° W 20:24:03 10° S
Cosmos 2098 4.2 20:17:27 10° S 20:20:40 85° W 20:23:40 10° N
Spot 2 Rocket 3.5 20:17:02 10° SSE 20:22:08 76° ENE 20:27:17 10° NNW
Cosmos 2344 3.9 20:16:14 10° S 20:23:30 48° ESE 20:31:47 10° NE
Cosmos 1844 Rocket 2.7 20:18:33 10° SSW 20:24:09 71° ESE 20:29:47 10° NNE
Cosmos 2150 Rocket 4.0 20:19:15 10° S 20:24:17 59° ESE 20:29:22 10° NNE
SAR-Lupe-4 4.0 20:21:15 10° SE 20:24:38 42° ENE 20:28:03 10° N
Abrixas 2.6 20:24:23 10° W 20:27:12 56° SSW 20:29:25 15° ESE
Cosmos 1939 Rocket 4.1 20:25:21 10° ESE 20:28:46 26° ENE 20:32:15 10° N
Cosmos 1833 Rocket 3.4 20:24:34 10° NNW 20:29:47 37° NE 20:34:23 13° ESE
USA 186 1.5 20:28:06 10° SE 20:30:10 35° ENE 20:32:17 10° N
Cosmos 1953 3.5 20:27:11 10° SE 20:30:24 23° E 20:33:37 10° NE
Okean 3 Rocket 3.7 20:26:10 10° N 20:30:29 51° ENE 20:34:46 10° SSE
USA 215 4.1 20:25:46 10° ENE 20:31:09 27° SE 20:36:30 10° S
Cosmos 2278 Rocket 2.6 20:28:38 10° S 20:33:50 39° ESE 20:39:05 10° NE
H-2A R/B 3.0 20:31:03 10° S 20:34:56 77° WSW 20:38:54 10° NNW
Cosmos 1707 4.4 20:32:17 10° NNW 20:35:56 38° W 20:39:33 10° SSW
Cosmos 1898 Rocket 3.6 20:31:36 10° SSW 20:36:56 88° WNW 20:42:15 10° NNE
Cosmos 990 Rocket 4.0 20:32:25 10° S 20:37:34 59° ESE 20:42:44 10° NNE
Envisat 3.4 20:35:17 10° SE 20:40:04 44° ENE 20:44:54 10° N
Cosmos 1934 Rocket 3.9 20:37:13 10° S 20:43:21 80° E 20:49:27 10° NNE
FENGYUN 3A 4.5 20:38:17 10° S 20:43:34 54° W 20:48:53 10° NNW
SAR-Lupe-1 4.1 20:40:32 10° SSE 20:44:03 61° ENE 20:47:37 10° N
Meteor 1-24 Rocket 4.0 20:39:16 10° NNW 20:44:40 69° W 20:50:13 10° S
Cosmos 1048 Rocket 4.3 20:40:31 10° NNW 20:45:30 47° ENE 20:49:27 16° SE
Cosmos 1125 Rocket 4.4 20:41:24 10° SSE 20:45:39 26° E 20:49:58 10° NE
Lacrosse 5 rocket 2.0 20:44:37 10° NW 20:48:28 40° NNE 20:50:52 19° E
CZ-4B DEB 2.9 20:46:56 16° SE 20:49:11 49° ENE 20:52:13 10° N
Cosmos 2263 Rocket 4.4 20:45:33 10° W 20:50:14 26° NW 20:54:56 10° NNE
Geosat 4.0 20:45:35 10° NE 20:50:34 58° ESE 20:55:31 10° SSW
Meteor 1-4 Rocket 3.2 20:48:51 11° SSE 20:51:49 30° E 20:54:56 10° NNE
SL-27 R/B 3.5 20:49:31 10° NNW 20:52:57 46° WSW 20:56:24 10° S
RESURS DK-1 3.2 20:49:07 10° NW 20:53:08 51° WSW 20:57:08 10° S
Cosmos 1544 3.3 20:50:23 10° SSE 20:53:53 46° E 20:57:25 10° NNE
Cosmos 1766 3.2 20:51:08 10° S 20:55:00 85° W 20:58:56 10° N
Meteor 1-29 3.4 20:53:14 10° NNE 20:56:30 37° E 20:59:45 10° SSE
ALOS 3.9 20:52:18 10° SSW 20:56:35 36° W 21:00:55 10° NNW
GP-B 3.3 20:52:45 10° SSE 20:57:00 48° E 21:01:18 10° N
COSMOS 2487 3.0 20:53:49 10° N 20:57:14 40° ENE 20:58:42 27° ESE
Cosmos 1812 Rocket 4.0 20:53:04 10° SSW 20:57:27 65° WNW 21:01:50 10° N
Resurs 01 Rocket 2.7 20:53:55 10° S 20:58:10 47° W 21:02:28 10° NNW
Cosmos 2082 Rocket 2.3 20:53:47 10° NNW 20:59:28 62° ENE 21:03:31 19° SE
Cosmos 1818 3.6 20:57:10 10° NW 21:02:40 89° NE 21:06:41 19° SE
Cosmos 1271 Rocket 4.0 21:03:26 23° E 21:03:26 23° E 21:06:18 10° NE
BREEZE-M DEB 4.2 21:01:40 10° WSW 21:05:45 70° SSE 21:06:50 36° E
ERS-1 Rocket 3.4 21:03:31 22° SE 21:06:26 44° ENE 21:11:12 10° N
USA 267 3.5 21:02:01 19° E 21:06:48 64° NNE 21:13:16 10° WNW
Cosmos 1766 Rocket 3.6 21:04:53 10° N 21:09:21 61° ENE 21:12:20 20° SSE
Cosmos 1937 Rocket 3.9 21:04:29 10° SSW 21:09:43 67° WNW 21:15:02 10° NNE
Cosmos 1076 Rocket 3.4 21:05:28 10° N 21:09:45 83° E 21:13:28 13° SSE
Lacrosse 5 2.0 21:08:13 10° SSW 21:13:07 50° SE 21:16:45 18° ENE
Cosmos 1269 Rocket 3.9 21:12:10 10° NNW 21:17:30 84° ENE 21:21:03 21° SSE
Timation 1 Rocket 4.5 21:12:46 10° S 21:18:31 49° ESE 21:24:18 10° NE
SPOT 5 3.9 21:17:05 27° E 21:18:54 34° ENE 21:23:40 10° N
Cosmos 2100 Rocket 4.2 21:14:39 10° SSE 21:20:42 50° E 21:26:50 10° NNE
Cosmos 1605 Rocket 4.2 21:15:08 10° SSW 21:21:24 79° W 21:27:49 10° N
Cosmos 2098 Rocket 4.3 21:17:44 10° S 21:24:56 81° E 21:32:35 10° N
Meteor 1-21 Rocket 4.3 21:19:11 10° NNW 21:24:59 83° W 21:30:51 10° S
Cosmos 1844 4.4 21:19:26 10° SW 21:25:08 59° WNW 21:30:55 10° NNE
Helios 1B rocket 2.5 21:21:56 10° NNE 21:26:06 82° WNW 21:30:13 10° SSW
Fregat R/B Cluster 11 4.1 21:21:37 10° SSW 21:26:31 54° SE 21:28:24 24° ENE
Cosmos 1674 2.5 21:23:07 10° N 21:26:55 87° E 21:28:28 34° S
ARGOS 3.8 21:29:44 32° E 21:31:08 38° ENE 21:36:03 10° N
Cosmos 1805 3.6 21:27:43 10° SSW 21:31:35 64° WNW 21:35:29 10° N
Helios 1A 4.3 21:28:33 10° SSW 21:32:28 39° W 21:36:26 10° NNW
MetOp-A 4.3 21:34:38 36° SE 21:36:30 55° ENE 21:41:44 10° N
Cosmos-2242 2.9 21:35:33 40° SSE 21:36:51 62° E 21:41:05 10° NNE
Cosmos 1340 Rocket 2.7 21:33:41 10° N 21:37:46 74° ENE 21:38:32 55° SE
Cosmos 1802 Rocket 4.0 21:34:35 23° SSE 21:38:12 53° E 21:44:12 10° NNE
Cosmos 1743 Rocket 3.5 21:36:56 10° N 21:41:21 63° ENE 21:42:05 53° SE
Cosmos 1867 3.8 21:36:14 10° S 21:41:24 45° ESE 21:46:36 10° NE
Lacrosse 4 Rocket 3.2 21:38:33 10° WSW 21:42:11 31° NW 21:45:51 10° NNE
Cosmos 1500 Rocket 3.7 21:39:58 10° N 21:44:11 49° ENE 21:44:13 49° ENE
Cosmos 1470 2.6 21:44:19 67° SE 21:44:35 70° E 21:48:34 10° NNE
Cosmos 2061 Rocket 4.0 21:41:04 15° S 21:46:25 66° E 21:52:48 10° NNE
Timation 2 Rocket 4.0 21:40:12 10° NNW 21:46:37 78° WSW 21:49:45 31° SSE
H-2A R/B 3.6 21:47:32 20° NE 21:47:32 20° NE 21:49:50 10° NNE
Terra 3.4 21:51:55 21° NE 21:51:55 21° NE 21:55:00 10° NNE
YAOGAN 6 2.7 21:55:08 67° SW 21:55:24 71° W 21:59:09 10° NNW
Cosmos 372 Rocket 3.8 21:51:33 10° SSW 21:56:39 75° ESE 22:01:49 10° NNE
CZ-3B DEB 2.2 21:51:42 10° WSW 22:00:18 79° NNW 22:01:57 40° NE
Cosmos 1939 Rocket 4.3 22:01:16 20° SSW 22:03:34 36° W 22:07:26 10° NNW
Cosmos 1953 3.9 22:02:53 10° SW 22:06:39 36° WNW 22:10:26 10° N
H-2A R/B 2.5 22:07:10 46° ENE 22:07:17 46° ENE 22:12:22 10° N
Cosmos 1733 3.5 22:08:58 65° WNW 22:08:58 65° WNW 22:12:47 10° N
Cosmos 1328 4.0 22:05:27 10° N 22:08:57 66° NNW 22:08:57 66° NNW
Cosmos 1626 4.2 22:06:51 10° N 22:08:11 18° NNE 22:08:11 18° NNE
SL-14 R/B 3.8 22:09:16 10° N 22:12:15 52° N 22:12:15 52° N
Cosmos 1833 Rocket 3.5 22:08:30 10° NW 22:13:50 45° WSW 22:16:07 30° SSW
BREEZE-M DEB (TANK) 4.3 22:09:40 10° SW 22:14:21 49° SE 22:31:48 10° ENE
USA 215 3.1 22:08:15 10° ENE 22:14:50 79° SE 22:21:23 10° SW
YAOGAN 11 4.3 22:14:31 62° SW 22:15:01 69° WSW 22:19:36 10° NNW
Cosmos 494 Rocket 3.7 22:09:52 10° NNW 22:15:01 83° ENE 22:15:18 78° ESE
NOAA 11 4.2 22:15:11 54° S 22:16:29 81° WSW 22:22:02 10° NNW
Cosmos 2278 Rocket 3.4 22:12:31 10° WSW 22:17:54 42° NW 22:23:19 10° NNE
Cosmos 1842 Rocket 4.3 22:19:45 45° NNE 22:19:45 45° NNE 22:22:53 10° NNE
Cosmos 1459 Rocket 4.2 22:14:20 10° SSW 22:20:35 69° WNW 22:26:47 10° N
Cosmos 2173 Rocket 4.2 22:17:04 12° SSW 22:22:49 68° WNW 22:29:06 10° N
Meteor 1-11 4.1 22:17:27 10° NNW 22:23:04 88° W 22:23:45 70° S
Cosmos 1864 Rocket 4.4 22:25:53 65° SE 22:26:34 71° E 22:32:52 10° NNE
Cosmos 1125 Rocket 4.3 22:22:24 10° SW 22:27:27 51° WNW 22:32:34 10° NNE
Lacrosse 5 rocket 2.5 22:23:59 10° WNW 22:26:35 36° W 22:26:35 36° W
Cosmos 1356 Rocket 4.1 22:23:58 10° NNW 22:27:25 53° NW 22:27:25 53° NW
Cosmos 2297 4.0 22:24:29 10° SW 22:30:10 65° WNW 22:35:55 10° NNE
MetOp-B 4.5 22:29:32 50° SSW 22:30:36 60° WSW 22:35:56 10° NNW
Cosmos 2344 4.4 22:30:16 10° WSW 22:37:57 54° NNW 22:47:24 10° NE
Cosmos 1271 Rocket 4.3 22:38:33 33° W 22:38:58 34° WNW 22:42:42 10° N
Cosmos 2082 Rocket 3.9 22:38:33 10° NW 22:43:08 25° WSW 22:45:24 20° SW
SL-08 RB Rocket 4.3 22:45:41 57° NW 22:45:41 57° NW 22:49:38 10° NNW
Cosmos 2151 4.1 22:42:01 10° NNW 22:45:13 42° NW 22:45:13 42° NW
USA 267 3.4 22:49:22 57° SSW 22:49:54 59° SW 22:56:22 10° WNW
Meteor 1-16 Rocket 4.5 22:49:07 59° SW 22:50:05 70° WNW 22:56:03 10° N
SPOT 1/Viking Rocket 3.8 22:51:05 64° W 22:51:05 64° W 22:56:00 10° NNW
Cosmos 2251 Rocket 4.1 22:48:18 10° NNW 22:53:18 51° W 22:53:18 51° W
Lacrosse 5 2.5 22:51:12 10° W 22:56:02 52° NNW 22:56:02 52° NNW
SPOT 5 3.9 22:56:20 42° WSW 22:56:50 43° W 23:01:56 10° NNW
Cosmos 1725 Rocket 4.1 22:59:11 63° WSW 22:59:59 70° WNW 23:06:13 10° N
ARGOS 4.2 23:11:14 37° W 23:11:23 37° W 23:16:23 10° NNW
H-2A R/B 4.2 23:24:39 23° NW 23:24:39 23° NW 23:26:24 10° NNW
Cosmos 2297 Rocket 4.4 23:22:36 10° N 23:25:47 15° NNE 23:26:34 15° NE
Terra 3.4 23:30:48 33° NW 23:30:48 33° NW 23:33:32 10° NNW
Cosmos 2369 Rocket 4.1 23:45:47 22° NNE 23:45:47 22° NNE 23:47:40 10° NNE
H-2A R/B 3.7 23:47:47 29° WNW 23:47:47 29° WNW 23:51:34 10° NNW
Cosmos 2227 Rocket 4.1 23:47:18 10° N 23:51:04 22° NNE 23:51:04 22° NNE
